Weather History for Fort Madison, IA

Change the Weather History Date:

Friday, November 22, 2013

  Actual Average Record
Temperature  
Mean Temperature 27 °F -  
Max Temperature 35 °F 46 °F 71 °F (2010)
Min Temperature 19 °F 29 °F 12 °F (1964)
Degree Days  
Heating Degree Days 38    
Moisture  
Dew Point 25 °F    
Average Humidity 79    
Maximum Humidity 93    
Minimum Humidity 69    
Precipitation  
Precipitation 0.00 in - - ()
Sea Level Pressure  
Sea Level Pressure 30.48 in    
Wind  
Wind Speed 12 mph (NW)    
Max Wind Speed 18 mph    
Max Gust Speed 24 mph    
Visibility 9 miles    
Events Rain    
Averages and records for this station are not official NWS values.
T = Trace of Precipitation, MM = Missing Value Source: NWS Daily Summary

Daily Weather History Graph

Daily Weather History Graph

Search for Another Location

Airport:

Trip Planner

Search our weather history database for the weather conditions in past years. The results will help you decide how hot, cold, wet, or windy it might be!

Date:

Astronomy

Nov. 22, 2013 Rise Set
Actual Time 7:00 AM CST 4:42 PM CST
Civil Twilight 6:30 AM CST 5:12 PM CST
Nautical Twilight 5:57 AM CST 5:45 PM CST
Astronomical Twilight 5:24 AM CST 6:18 PM CST
Moon 9:15 PM CST (11/22) 10:43 AM CST (11/22)
Length of Visible Light 10h 41m
Length of Day
9h 41m
Waning Gibbous, 78% of the Moon is Illuminated
Nov 22
Waning Gibbous
Nov 25
Last Quarter
Dec 2
New
Dec 9
First Quarter
Dec 17
Full

Hourly Weather History & Observations

Time (CST) Temp. Windchill Dew Point Humidity Pressure Visibility Wind Dir Wind Speed Gust Speed Precip Events Conditions
12:15 AM 35.6 °F 27.1 °F 33.8 °F 93% 30.29 in 7.0 mi NNW 12.7 mph 19.6 mph N/A   Overcast
12:35 AM 35.6 °F 27.5 °F 33.8 °F 93% 30.31 in 7.0 mi NW 11.5 mph - N/A   Overcast
12:55 AM 35.6 °F 27.1 °F 32.0 °F 87% 30.31 in 10.0 mi NW 12.7 mph 20.7 mph N/A Rain Light Rain
1:15 AM 35.6 °F 26.6 °F 32.0 °F 87% 30.31 in 7.0 mi NNW 13.8 mph 24.2 mph N/A Rain Light Rain
1:35 AM 35.6 °F 26.6 °F 30.2 °F 81% 30.32 in 7.0 mi NW 13.8 mph 19.6 mph N/A Rain Light Rain
1:55 AM 35.6 °F 26.6 °F 30.2 °F 81% 30.33 in 4.0 mi NW 13.8 mph - N/A   Overcast
2:15 AM 33.8 °F 24.8 °F 30.2 °F 87% 30.35 in 3.0 mi NW 12.7 mph 19.6 mph N/A   Overcast
2:35 AM 33.8 °F 23.2 °F 30.2 °F 87% 30.35 in 3.0 mi NNW 17.3 mph 23.0 mph N/A Rain Light Rain
2:55 AM 33.8 °F 23.5 °F 30.2 °F 87% 30.34 in 5.0 mi NNW 16.1 mph 23.0 mph N/A   Overcast
3:15 AM 33.8 °F 23.2 °F 30.2 °F 87% 30.35 in 4.0 mi NNW 17.3 mph 20.7 mph N/A   Overcast
3:35 AM 33.8 °F 24.8 °F 28.4 °F 81% 30.37 in 4.0 mi NW 12.7 mph - N/A   Overcast
3:55 AM 32.0 °F 22.1 °F 28.4 °F 87% 30.37 in 4.0 mi NW 13.8 mph 18.4 mph N/A   Overcast
4:15 AM 32.0 °F 21.6 °F 28.4 °F 87% 30.37 in 5.0 mi NNW 15.0 mph 23.0 mph N/A   Overcast
4:35 AM 32.0 °F 21.2 °F 28.4 °F 87% 30.38 in 10.0 mi NNW 16.1 mph 19.6 mph N/A   Overcast
4:55 AM 32.0 °F 22.1 °F 28.4 °F 87% 30.39 in 10.0 mi NNW 13.8 mph - N/A   Overcast
5:15 AM 32.0 °F 21.2 °F 26.6 °F 80% 30.39 in 10.0 mi NNW 16.1 mph 20.7 mph N/A   Overcast
5:35 AM 32.0 °F 22.5 °F 26.6 °F 80% 30.40 in 10.0 mi NW 12.7 mph 18.4 mph N/A   Overcast
5:55 AM 32.0 °F 21.6 °F 26.6 °F 80% 30.42 in 10.0 mi NNW 15.0 mph 21.9 mph N/A   Overcast
6:15 AM 30.2 °F 18.5 °F 26.6 °F 86% 30.43 in 7.0 mi NNW 17.3 mph 20.7 mph N/A   Overcast
6:35 AM 30.2 °F 18.1 °F 26.6 °F 86% 30.44 in 10.0 mi NNW 18.4 mph - N/A   Overcast
6:55 AM 30.2 °F 19.3 °F 26.6 °F 86% 30.45 in 10.0 mi NNW 15.0 mph 20.7 mph N/A   Overcast
7:15 AM 30.2 °F 18.9 °F 24.8 °F 80% 30.45 in 10.0 mi NNW 16.1 mph 20.7 mph N/A   Overcast
7:35 AM 30.2 °F 19.8 °F 24.8 °F 80% 30.46 in 10.0 mi NNW 13.8 mph - N/A   Overcast
7:55 AM 30.2 °F 19.8 °F 24.8 °F 80% 30.47 in 10.0 mi NNW 13.8 mph - N/A   Overcast
8:15 AM 30.2 °F 19.3 °F 24.8 °F 80% 30.49 in 10.0 mi NNW 15.0 mph 18.4 mph N/A   Overcast
8:35 AM 30.2 °F 20.8 °F 24.8 °F 80% 30.50 in 10.0 mi NNW 11.5 mph - N/A   Overcast
8:55 AM 30.2 °F 20.2 °F 24.8 °F 80% 30.50 in 10.0 mi NNW 12.7 mph - N/A   Overcast
9:15 AM 30.2 °F 19.3 °F 24.8 °F 80% 30.51 in 10.0 mi North 15.0 mph - N/A   Overcast
9:35 AM 30.2 °F 20.8 °F 24.8 °F 80% 30.51 in 10.0 mi NNW 11.5 mph 17.3 mph N/A   Overcast
9:55 AM 30.2 °F 20.2 °F 24.8 °F 80% 30.51 in 10.0 mi NNW 12.7 mph - N/A   Overcast
10:15 AM 32.0 °F 22.5 °F 24.8 °F 75% 30.52 in 10.0 mi NNW 12.7 mph - N/A   Overcast
10:35 AM 32.0 °F 22.5 °F 24.8 °F 75% 30.50 in 10.0 mi NNW 12.7 mph - N/A   Overcast
10:55 AM 33.8 °F 24.8 °F 26.6 °F 75% 30.52 in 10.0 mi NNW 12.7 mph 18.4 mph N/A   Overcast
11:15 AM 33.8 °F 25.3 °F 26.6 °F 75% 30.51 in 10.0 mi NNW 11.5 mph - N/A   Overcast
11:35 AM 33.8 °F 26.4 °F 26.6 °F 75% 30.49 in 10.0 mi North 9.2 mph - N/A   Overcast
11:55 AM 33.8 °F 25.8 °F 26.6 °F 75% 30.50 in 10.0 mi NNW 10.4 mph - N/A   Overcast
12:15 PM 33.8 °F 25.3 °F 26.6 °F 75% 30.50 in 10.0 mi NNW 11.5 mph - N/A   Overcast
12:35 PM 33.8 °F 25.3 °F 26.6 °F 75% 30.51 in 10.0 mi NNW 11.5 mph 19.6 mph N/A   Overcast
12:55 PM 35.6 °F 26.6 °F 26.6 °F 70% 30.51 in 10.0 mi NNW 13.8 mph 19.6 mph N/A   Overcast
1:15 PM 35.6 °F 26.6 °F 26.6 °F 70% 30.52 in 10.0 mi NNW 13.8 mph - N/A   Overcast
1:35 PM 35.6 °F 26.6 °F 26.6 °F 70% 30.53 in 10.0 mi NNW 13.8 mph - N/A   Overcast
1:55 PM 35.6 °F 27.1 °F 26.6 °F 70% 30.53 in 10.0 mi NNW 12.7 mph - N/A   Overcast
2:15 PM 33.8 °F 25.3 °F 26.6 °F 75% 30.54 in 10.0 mi NW 11.5 mph 19.6 mph N/A   Overcast
2:35 PM 33.8 °F 24.3 °F 26.6 °F 75% 30.54 in 10.0 mi NNW 13.8 mph - N/A   Overcast
2:55 PM 33.8 °F 24.3 °F 24.8 °F 70% 30.54 in 10.0 mi NNW 13.8 mph - N/A   Overcast
3:15 PM 33.8 °F 24.8 °F 24.8 °F 70% 30.55 in 10.0 mi NNW 12.7 mph - N/A   Mostly Cloudy
3:35 PM 33.8 °F 24.3 °F 24.8 °F 70% 30.55 in 10.0 mi NNW 13.8 mph 17.3 mph N/A   Mostly Cloudy
3:55 PM 33.8 °F 24.8 °F 24.8 °F 70% 30.54 in 10.0 mi NNW 12.7 mph 16.1 mph N/A   Scattered Clouds
4:15 PM 32.0 °F 23.0 °F 24.8 °F 75% 30.54 in 10.0 mi NNW 11.5 mph - N/A   Clear
4:35 PM 30.2 °F 22.6 °F 23.0 °F 75% 30.54 in 10.0 mi NNW 8.1 mph - N/A   Clear
4:55 PM 30.2 °F 20.2 °F 21.2 °F 69% 30.55 in 10.0 mi NNW 12.7 mph - N/A   Clear
5:15 PM 30.2 °F 20.8 °F 21.2 °F 69% 30.54 in 10.0 mi NNW 11.5 mph - N/A   Clear
5:35 PM 28.4 °F 19.7 °F 21.2 °F 74% 30.54 in 10.0 mi NNW 9.2 mph - N/A   Clear
5:55 PM 28.4 °F 20.4 °F 21.2 °F 74% 30.54 in 10.0 mi NNW 8.1 mph - N/A   Clear
6:15 PM 28.4 °F 22.2 °F 21.2 °F 74% 30.55 in 10.0 mi NW 5.8 mph - N/A   Clear
6:35 PM 26.6 °F 19.1 °F 21.2 °F 80% 30.55 in 10.0 mi NW 6.9 mph - N/A   Clear
6:55 PM 26.6 °F 21.2 °F 21.2 °F 80% 30.55 in 10.0 mi WNW 4.6 mph - N/A   Clear
7:15 PM 26.6 °F 21.2 °F 21.2 °F 80% 30.55 in 10.0 mi WNW 4.6 mph - N/A   Clear
7:35 PM 26.6 °F 20.0 °F 21.2 °F 80% 30.56 in 10.0 mi WNW 5.8 mph - N/A   Clear
7:55 PM 26.6 °F 20.0 °F 19.4 °F 74% 30.56 in 10.0 mi West 5.8 mph - N/A   Clear
8:15 PM 24.8 °F 16.9 °F 19.4 °F 80% 30.56 in 10.0 mi West 6.9 mph - N/A   Clear
8:35 PM 24.8 °F 19.1 °F 19.4 °F 80% 30.57 in 10.0 mi West 4.6 mph - N/A   Clear
8:55 PM 24.8 °F 19.1 °F 19.4 °F 80% 30.57 in 10.0 mi West 4.6 mph - N/A   Clear
9:15 PM 24.8 °F 17.9 °F 19.4 °F 80% 30.57 in 10.0 mi West 5.8 mph - N/A   Clear
9:35 PM 23.0 °F 14.7 °F 19.4 °F 86% 30.57 in 10.0 mi West 6.9 mph - N/A   Clear
9:55 PM 23.0 °F 14.7 °F 17.6 °F 80% 30.57 in 10.0 mi WNW 6.9 mph - N/A   Clear
10:15 PM 23.0 °F 14.7 °F 17.6 °F 80% 30.57 in 10.0 mi WNW 6.9 mph - N/A   Clear
10:35 PM 21.2 °F 12.6 °F 15.8 °F 80% 30.57 in 10.0 mi WNW 6.9 mph - N/A   Clear
10:55 PM 21.2 °F 13.6 °F 15.8 °F 80% 30.56 in 10.0 mi NW 5.8 mph - N/A   Clear
11:15 PM 21.2 °F 14.9 °F 15.8 °F 80% 30.56 in 10.0 mi WNW 4.6 mph - N/A   Clear
11:35 PM 19.4 °F 12.8 °F 15.8 °F 86% 30.56 in 10.0 mi West 4.6 mph - N/A   Clear
11:55 PM 21.2 °F 14.9 °F 15.8 °F 80% 30.56 in 10.0 mi West 4.6 mph - N/A   Clear